Wind_Speed
75 78 79 80 81 82 84 85 86 84 82 79 77 75 73 71 68 65 63 61 61 60 60 61 60 60 59 57 57 56 56 55 55 54 53 52 52 50
62 64 66 66 68 71 74 77 81 83 83 80 78 76 75 72 70 67 66 64 64 64 63 63 62 62 61 60 59 59 59 58 58 57 56 56 55 54
49 53 55 55 56 58 61 64 69 74 78 78 77 76 76 75 74 72 71 69 69 68 67 67 67 67 66 65 63 62 61 61 60 60 60 59 59 59
41 46 49 50 52 54 56 58 59 63 67 70 72 73 73 74 74 74 73 73 73 72 72 72 71 71 71 70 69 67 66 65 65 64 64 64 64 63
38 42 47 48 49 50 53 55 55 55 58 61 64 67 69 71 72 73 73 73 74 74 74 74 74 73 73 73 72 71 71 70 69 68 67 66 66 65
39 43 45 47 47 47 49 50 51 52 52 54 57 60 62 64 66 68 69 70 71 72 72 72 72 72 71 71 71 72 71 70 70 69 68 67 66 66
37 41 44 46 46 47 47 47 49 50 51 51 53 55 57 59 61 62 64 65 66 67 68 68 68 69 69 68 67 67 67 67 67 67 66 66 66 65
36 38 42 45 45 46 46 47 48 49 50 51 52 53 53 54 56 58 59 61 62 62 64 65 65 65 64 64 64 64 64 64 64 64 64 64 65 65
38 38 39 42 44 45 45 46 47 48 49 51 52 52 52 52 53 54 55 58 59 60 62 62 63 63 63 62 62 62 62 62 62 62 62 63 63 64
38 39 39 40 42 44 45 46 46 47 48 50 51 52 53 52 52 52 53 54 55 56 57 57 57 58 58 59 59 59 60 60 60 61 61 62 62 62
39 39 39 39 41 43 45 46 47 47 48 49 49 51 51 52 52 52 53 53 53 53 53 53 53 53 54 55 56 57 57 58 59 59 60 61 61 61
39 40 40 40 41 43 46 47 48 48 48 49 49 49 50 50 50 51 51 51 51 51 51 51 51 51 52 52 53 54 56 57 58 58 59 59 58 58
39 40 41 42 43 44 46 48 48 48 49 50 50 49 49 50 49 49 49 49 49 49 48 49 49 50 51 51 52 53 53 54 55 56 56 55 55 55
41 41 42 43 43 44 46 47 48 49 49 50 50 49 49 49 49 49 49 48 48 48 47 48 49 49 50 50 51 51 52 51 51 51 51 51 50 50
43 43 43 44 44 45 45 46 48 49 49 49 49 49 49 49 48 48 48 47 47 47 47 47 49 49 49 49 49 50 50 49 48 47 46 46 45 45
46 46 45 45 46 46 46 46 47 48 49 49 49 49 48 48 47 47 47 47 46 46 46 47 48 49 49 48 48 48 47 46 45 44 43 42 42 42
48 48 48 47 47 47 48 48 48 48 49 49 49 48 48 47 47 46 46 45 45 45 45 45 46 46 46 46 46 45 45 44 43 41 41 40 40 40
48 49 50 49 49 49 49 49 49 48 48 49 49 49 48 48 47 46 45 44 44 44 44 43 43 43 43 42 42 43 43 42 40 39 39 39 38 38
43 48 50 51 51 51 51 51 51 50 49 49 49 49 48 48 47 46 45 44 43 43 43 43 42 41 41 41 41 41 41 40 40 39 38 37 37 37
33 40 47 51 53 53 53 53 54 53 52 52 51 50 49 49 48 47 46 44 44 43 42 42 42 42 41 41 42 42 41 41 40 39 38 37 36 36
24 30 37 45 51 54 55 56 56 56 55 55 54 53 52 50 49 48 47 46 45 44 43 43 42 42 41 42 42 42 41 41 40 39 37 36 35 34
20 23 28 34 42 50 55 57 58 58 58 58 58 57 56 54 52 51 49 48 46 45 44 43 42 42 42 42 42 42 41 40 40 38 37 35 34 33
19 21 23 27 32 40 48 54 58 60 61 61 61 60 60 59 57 56 53 51 50 48 47 45 44 43 43 43 43 43 42 40 39 38 37 36 34 33
Wind_Direction
244 243 243 244 244 244 245 245 245 244 243 243 242 242 242 242 242 241 239 238 236 236 236 238 240 243 245 246 246 247 247 247 248 248 249 250 251 252
243 241 240 239 240 241 242 243 244 244 243 241 241 240 240 239 239 237 236 234 233 233 234 235 237 238 240 242 243 245 246 246 247 248 249 250 252 253
240 236 233 232 234 234 236 238 240 241 241 240 239 238 238 237 236 236 235 234 233 232 232 233 234 236 238 239 240 242 243 245 246 248 249 251 253 254
234 230 227 228 230 230 231 233 235 237 238 238 236 235 235 235 234 234 234 233 233 232 232 233 234 236 238 240 242 243 244 246 247 249 250 252 253 255
230 226 224 225 226 227 229 230 231 233 234 234 234 233 233 233 233 233 233 233 232 233 233 234 236 238 240 242 244 246 247 248 249 250 252 253 254 255
230 227 224 224 225 228 229 231 231 232 232 233 232 232 232 232 232 233 233 233 234 234 235 236 238 241 243 244 246 247 248 249 251 252 252 253 254 255
233 230 226 225 227 228 229 230 230 231 232 232 232 232 232 232 233 233 234 234 234 235 236 238 240 242 243 245 246 248 249 250 251 252 252 253 253 253
239 236 233 230 229 229 229 230 230 231 231 231 231 232 232 232 233 233 234 234 236 237 238 239 241 242 244 245 246 248 249 250 251 251 251 251 251 251
240 239 238 236 234 232 230 230 231 232 232 231 230 231 233 233 234 235 235 236 236 237 238 239 241 242 243 244 246 247 248 249 249 249 249 249 249 249
240 239 238 237 236 234 232 231 231 231 231 231 231 231 231 232 234 235 236 238 238 237 238 239 239 241 242 243 244 245 246 247 248 248 248 248 248 248
238 237 236 236 235 234 233 231 231 231 231 231 232 232 231 232 234 235 236 237 237 237 239 240 240 241 242 243 244 245 245 246 247 247 247 247 247 248
237 236 236 235 233 231 230 230 229 229 229 229 230 231 231 231 232 234 235 236 236 237 238 239 240 243 244 245 246 246 246 245 246 246 247 247 247 247
236 234 234 233 232 231 230 228 228 227 227 227 227 229 230 230 231 232 233 234 236 237 239 241 243 245 247 248 248 247 246 245 245 245 245 245 245 245
235 234 233 232 231 230 230 228 228 227 227 226 227 228 229 230 231 232 234 235 237 239 241 243 245 246 247 249 249 248 247 246 243 242 242 242 242 242
233 233 233 232 230 229 229 228 228 228 227 227 228 228 229 230 231 233 235 237 238 241 243 244 245 246 247 248 249 248 246 244 240 239 238 237 237 239
234 232 231 231 230 229 228 228 229 228 228 228 229 229 229 230 232 233 236 238 239 242 243 244 245 245 246 248 248 247 243 241 237 234 233 233 234 235
236 234 232 230 230 229 229 228 229 229 229 229 229 229 230 231 232 234 236 237 239 240 242 243 243 243 244 245 243 241 239 236 233 228 227 229 231 232
237 236 234 232 230 230 229 229 229 229 229 229 229 229 230 231 232 233 235 236 238 239 239 239 240 240 240 239 238 237 235 232 228 224 223 226 230 230
239 237 236 235 233 231 230 230 229 229 229 228 228 229 229 230 231 233 234 236 237 237 238 238 238 238 237 236 236 234 232 228 225 224 224 226 230 234
244 240 237 236 235 233 232 231 230 230 229 229 229 229 229 229 230 232 233 235 236 237 237 237 237 237 237 235 234 232 229 227 226 226 226 228 232 237
251 245 241 238 237 235 234 233 232 231 231 230 230 230 230 230 230 231 232 234 235 236 236 235 235 235 235 234 233 232 229 227 228 229 230 231 233 237
258 254 248 243 239 237 236 235 234 233 232 232 231 231 231 231 231 231 232 233 235 235 236 235 234 234 233 233 232 232 230 229 229 231 232 233 234 236
265 262 257 251 245 241 238 237 236 235 234 233 233 232 232 232 232 232 233 233 234 235 235 235 234 233 232 232 232 232 232 231 230 231 234 235 235 237
Height
5498 5506 5514 5522 5530 5539 5548 5557 5567 5577 5588 5597 5605 5613 5621 5628 5635 5642 5648 5655 5661 5667 5672 5678 5683 5689 5694 5699 5704 5709 5714 5718 5723 5727 5731 5735 5739 5743
5477 5485 5493 5501 5509 5518 5526 5534 5542 5554 5565 5575 5584 5593 5601 5609 5616 5623 5630 5638 5644 5651 5657 5663 5669 5674 5680 5685 5689 5694 5699 5704 5709 5713 5718 5722 5727 5731
5461 5468 5477 5485 5492 5500 5507 5514 5522 5531 5542 5553 5563 5572 5580 5589 5597 5605 5613 5621 5628 5635 5642 5648 5654 5659 5664 5670 5674 5679 5684 5689 5694 5699 5703 5709 5713 5717
5448 5454 5463 5470 5478 5485 5492 5499 5505 5513 5522 5532 5542 5552 5561 5569 5578 5586 5595 5603 5611 5618 5625 5631 5637 5642 5648 5654 5659 5664 5669 5674 5679 5684 5689 5694 5698 5702
5436 5442 5449 5457 5463 5469 5476 5483 5490 5498 5506 5515 5524 5533 5542 5550 5559 5567 5576 5585 5593 5600 5607 5614 5620 5625 5631 5637 5643 5648 5653 5659 5664 5668 5672 5678 5682 5687
5425 5430 5436 5443 5449 5455 5462 5469 5476 5484 5492 5500 5508 5517 5526 5534 5542 5551 5559 5567 5575 5583 5590 5597 5603 5609 5615 5621 5628 5632 5636 5641 5646 5651 5656 5661 5666 5670
5414 5418 5424 5430 5437 5443 5449 5456 5464 5472 5480 5487 5495 5503 5511 5519 5528 5536 5543 5551 5558 5566 5574 5582 5588 5594 5598 5604 5610 5615 5619 5624 5629 5634 5640 5645 5649 5654
5404 5408 5413 5419 5424 5431 5437 5445 5452 5460 5468 5475 5483 5490 5498 5506 5513 5520 5528 5536 5545 5555 5559 5564 5570 5576 5582 5589 5594 5599 5603 5607 5612 5618 5623 5628 5633 5638
5394 5398 5402 5407 5413 5419 5426 5434 5441 5448 5455 5462 5469 5477 5484 5493 5501 5509 5515 5521 5529 5537 5541 5548 5554 5560 5566 5572 5578 5582 5587 5591 5596 5602 5607 5612 5616 5621
5384 5388 5392 5397 5402 5408 5415 5422 5429 5436 5443 5450 5457 5464 5471 5478 5486 5494 5501 5507 5514 5520 5526 5532 5539 5544 5550 5556 5562 5566 5570 5575 5580 5586 5591 5595 5600 5605
5373 5377 5381 5386 5391 5397 5404 5411 5417 5424 5430 5437 5444 5451 5458 5466 5474 5480 5487 5494 5500 5506 5512 5518 5524 5529 5535 5541 5546 5550 5555 5560 5565 5570 5575 5580 5585 5590
5361 5366 5370 5375 5380 5385 5391 5398 5404 5411 5418 5425 5432 5439 5446 5453 5460 5467 5474 5480 5486 5492 5498 5504 5510 5515 5520 5526 5531 5535 5540 5545 5549 5555 5560 5565 5570 5575
5349 5353 5357 5362 5368 5373 5379 5385 5392 5399 5406 5413 5420 5427 5434 5441 5448 5454 5460 5467 5473 5479 5485 5490 5496 5501 5506 5511 5515 5520 5524 5529 5535 5540 5545 5550 5555 5560
5336 5340 5345 5349 5355 5361 5367 5373 5380 5387 5394 5401 5408 5415 5422 5429 5435 5442 5448 5454 5460 5466 5472 5477 5482 5487 5492 5496 5501 5505 5509 5515 5520 5526 5531 5536 5542 5547
5321 5326 5332 5337 5343 5349 5355 5361 5368 5375 5382 5389 5396 5402 5409 5416 5423 5429 5435 5441 5447 5453 5458 5463 5468 5473 5478 5482 5487 5491 5495 5501 5507 5513 5518 5524 5529 5535
5307 5312 5318 5324 5330 5336 5343 5349 5356 5363 5369 5376 5383 5390 5397 5404 5410 5416 5423 5429 5434 5440 5445 5450 5455 5460 5465 5469 5473 5477 5482 5488 5494 5500 5506 5512 5518 5523
5292 5298 5304 5311 5317 5323 5330 5337 5343 5350 5357 5364 5371 5378 5384 5391 5397 5404 5410 5416 5422 5427 5432 5437 5442 5447 5452 5457 5461 5465 5470 5476 5482 5489 5496 5501 5507 5513
5277 5283 5289 5296 5303 5310 5317 5324 5331 5338 5344 5351 5358 5365 5372 5379 5385 5392 5398 5404 5410 5415 5420 5426 5431 5436 5441 5446 5451 5455 5460 5466 5472 5479 5486 5492 5497 5503
5262 5268 5274 5281 5288 5296 5303 5310 5317 5325 5332 5339 5346 5352 5359 5366 5373 5379 5386 5392 5398 5404 5409 5415 5420 5425 5430 5435 5441 5445 5450 5457 5463 5470 5476 5482 5487 5492
5249 5253 5259 5266 5273 5281 5288 5296 5303 5311 5318 5325 5333 5340 5347 5354 5360 5367 5374 5380 5386 5392 5398 5404 5410 5415 5420 5426 5431 5436 5442 5448 5454 5460 5467 5473 5478 5483
5239 5242 5246 5251 5258 5265 5273 5281 5288 5296 5304 5311 5319 5326 5333 5341 5348 5355 5362 5368 5375 5381 5387 5394 5400 5405 5410 5416 5421 5427 5433 5439 5445 5451 5457 5463 5469 5473
5231 5233 5235 5239 5244 5250 5257 5264 5272 5280 5288 5296 5304 5312 5319 5327 5335 5342 5350 5357 5363 5369 5376 5383 5389 5395 5401 5406 5412 5417 5424 5430 5436 5442 5447 5453 5458 5463
5224 5225 5226 5229 5232 5236 5241 5248 5256 5264 5272 5280 5288 5296 5304 5313 5321 5329 5336 5344 5351 5358 5364 5371 5378 5385 5391 5397 5403 5408 5414 5421 5427 5433 5438 5443 5449 5453